[[{"header":{"parameterUnit":"m.s-1","parameterCategory":1,"la1":30.2991,"la2":30.254,"lo1":-89.0895,"lo2":-89.0444,"dy":0.0017,"dx":0.0017,"nx":28,"ny":28,"refTime":"2024-06-04T21:00:00:Z","depth":0,"parameterNumber":2,"parameterNumberName":"U-component_of_WINDS"},"data":[0,0,0,0,0,0,0,0,0,0,0,0,0,0,0,0,0,0,0,0,0,0,0,0,0,0,0,0,0,0,0,0,0,0,0,0,0,0,0,0,0,0,0,0,0,0,0,0,0,0,0,0,0,0,0,0,0,0,3.9314,3.9314,0,3.9372,3.9373,3.9373,3.934,3.9338,3.9336,3.9335,3.9395,3.9398,3.9401,0,0,0,0,0,0,0,0,0,0,0,0,0,3.9174,3.9177,3.9313,3.9314,3.9315,3.9372,3.9373,3.9373,3.934,3.9338,3.9336,3.9334,3.9394,3.9398,3.9402,0,0,0,0,0,0,0,0,0,0,0,0,0,3.9234,3.9178,3.9313,3.9305,3.9305,3.9372,3.9373,3.9374,3.934,3.9338,3.9335,3.9333,3.9393,3.9397,3.9402,3.948,0,0,3.9416,3.9418,0,0,0,0,0,0,0,0,3.9231,3.9239,3.9306,3.9306,3.9306,3.9346,3.9346,3.9409,3.9341,3.9327,3.9335,3.9332,3.9381,3.9386,3.9403,3.9483,3.9486,3.9417,3.942,3.9422,3.9423,0,0,0,0,0,0,0,3.9226,3.9236,3.9337,3.9307,3.9307,3.9299,3.9305,3.9358,3.9367,3.9328,3.9326,3.9333,3.938,3.9398,3.9404,3.9487,3.9417,3.9421,3.9424,3.9426,3.9636,3.9638,0,0,0,0,0,0,3.9223,3.9233,3.9335,3.9338,3.9261,3.9303,3.931,3.9335,3.9366,3.9369,3.9335,3.9331,3.9391,3.9398,3.9406,3.95,3.9422,3.9426,3.9429,3.9633,3.9636,3.9639,0,0,0,0,0,0,3.922,3.9232,3.9332,3.9285,3.9297,3.9308,3.9338,3.9338,3.9356,3.9372,3.9373,3.9351,3.939,3.9399,3.9462,3.9502,3.9428,3.9432,3.963,3.9634,3.9638,3.9689,0,0,0,0,0,0,3.9216,3.9231,3.9261,3.9286,3.93,3.9388,3.934,3.9341,3.9364,3.9359,3.9387,3.939,3.9388,3.9455,3.9467,3.9507,3.9436,3.9626,3.9631,3.9636,3.9684,3.9694,3.9703,0,0,0,0,0,3.9211,3.9273,3.9262,3.9275,3.9337,3.939,3.9398,3.9395,3.9367,3.9397,3.9408,3.9389,3.9496,3.9462,3.9475,3.9517,3.9624,3.963,3.9636,3.9679,3.9692,3.9703,0,0,0,0,0,0,3.9252,3.9276,3.9265,3.9336,3.9361,3.9384,3.9422,3.9409,3.9442,3.9436,3.9432,3.9438,3.9504,3.9517,3.9479,3.9595,3.9555,3.9564,3.9584,3.9596,3.9606,3.9601,3.944,0,0,0,0,0,3.9269,3.931,3.9329,3.939,3.9403,3.9411,3.9433,3.9429,3.9455,3.9465,3.948,3.9506,3.9546,3.9572,3.9609,3.9686,3.9692,3.9721,3.9731,3.9739,3.9746,3.9789,3.9802,3.9659,3.9659,3.9659,0,0,3.9305,3.9323,3.9349,3.9399,3.9418,3.946,3.942,3.9466,3.9498,3.9472,3.9533,3.9545,3.9574,3.9644,3.9676,3.9657,3.9787,3.9746,3.9753,3.9756,3.9796,3.981,3.9822,3.9664,3.9663,3.9662,0,0,3.9393,3.941,3.9464,3.9484,3.9513,3.9518,3.9531,3.9556,3.9563,3.9624,3.9606,3.9644,3.9711,3.9733,3.9753,3.985,3.9834,3.9862,3.9913,3.9954,3.9966,3.9976,4.001,4.0023,3.987,3.987,3.987,0,3.9434,3.9497,3.9493,3.9541,3.9564,3.9543,3.9598,3.9617,3.9657,3.9674,3.9651,3.9737,3.9755,3.983,3.9854,3.9871,3.9886,3.9859,3.9964,3.9974,3.9983,4.0017,4.003,3.9873,3.9873,3.9873,3.9872,0,3.9546,3.9591,3.963,3.967,3.9697,3.9748,3.9752,3.978,3.9774,3.9781,3.9844,3.9865,3.9906,3.9924,3.9918,3.9999,3.9986,3.9965,3.9925,4.0,4.0031,4.0044,3.9878,3.9877,3.9876,3.9875,0,0,3.966,3.9697,3.9712,3.973,3.9761,3.9796,3.9846,3.9887,3.9911,3.994,3.9983,4.0041,4.0021,4.0044,4.0041,4.0077,4.0153,4.0051,4.0051,4.0069,4.0244,4.026,4.0275,4.0143,4.0146,4.0148,4.0242,0,3.975,3.9838,3.9836,3.9918,3.996,3.9941,3.9986,4.001,4.0018,4.0055,4.0064,4.0106,4.0077,4.009,4.0125,4.0137,4.0188,4.013,4.0183,4.0185,4.0176,4.0291,4.0308,4.0396,4.0254,4.0256,4.0258,0,3.9865,3.9898,3.9985,4.0011,4.0028,4.0068,4.0105,4.0141,4.0168,4.0172,4.0198,4.0189,4.0241,4.02,4.0272,4.0233,4.0255,4.0264,4.0267,4.0272,4.0226,4.0299,4.0424,4.0437,4.0277,4.0275,4.0274,0,3.994,4.0006,4.0066,4.0082,4.0114,4.0143,4.0157,4.0183,4.0207,4.0241,4.0257,4.0295,4.0317,4.0347,4.0349,4.0319,4.0422,4.0381,4.0427,4.0427,4.0449,4.0447,4.0579,4.0464,4.0463,4.0463,4.0463,0,4.004,4.0094,4.01,4.0137,4.0197,4.0195,4.0255,4.0267,4.029,4.0329,4.0316,4.0353,4.0354,4.0393,4.0395,4.0454,4.0464,4.0469,4.0469,4.047,4.0469,4.0484,4.0478,4.0467,4.0466,4.0465,4.0465,0,4.0133,4.014,4.0204,4.023,4.0237,4.028,4.0302,4.0338,4.0345,4.0396,4.0407,4.0419,4.0464,4.047,4.0522,4.0523,4.0595,4.0588,4.0586,4.0584,4.063,4.0625,4.0775,4.0795,4.0667,4.0668,4.0669,0,4.0196,4.0237,4.0267,4.0293,4.0309,4.035,4.0376,4.0376,4.0403,4.0438,4.047,4.0513,4.0548,4.062,4.0634,4.0674,4.0668,4.0718,4.0674,4.0674,4.0669,4.0666,4.0671,4.0726,4.0728,4.0729,4.073,0,4.0308,4.0309,4.0346,4.0385,4.0416,4.0446,4.0475,4.0497,4.0501,4.0532,4.0578,4.0605,4.0658,4.0702,4.0741,4.0757,4.0744,4.0744,4.0756,4.0758,4.0754,4.0757,4.0609,4.074,4.0739,4.0738,4.0738,4.0737,4.0388,4.0424,4.0451,4.0493,4.0514,4.0542,4.0577,4.0589,4.0627,4.067,4.0669,4.0719,4.0747,4.0799,4.0817,4.0857,4.084,4.0859,4.0863,4.0868,4.0872,4.0749,4.0864,4.0864,4.0863,4.0863,4.0863,0,4.0499,4.0516,4.0554,4.0595,4.0628,4.0614,4.0645,4.0674,4.0719,4.0745,4.078,4.0833,4.0875,4.0893,4.0934,4.0963,4.0958,4.0974,4.0971,4.0975,4.0884,4.0869,4.0977,4.0977,4.0977,4.0976,4.0976,4.0976,4.056,4.062,4.0625,4.0696,4.0712,4.0762,4.0781,4.0806,4.0828,4.0887,4.0922,4.0933,4.0957,4.1,4.1038,4.1042,4.1058,4.1076,4.1078,4.0993,4.0981,4.097,4.0956,4.108,4.108,4.1165,4.1166,4.1167]},{"header":{"parameterUnit":"m.s-1","parameterCategory":1,"la1":30.2991,"la2":30.254,"lo1":-89.0895,"lo2":-89.0444,"dy":0.0017,"dx":0.0017,"nx":28,"ny":28,"refTime":"2024-06-04T21:00:00:Z","depth":0,"parameterNumber":3,"parameterNumberName":"V-component_of_WINDS"},"data":[0,0,0,0,0,0,0,0,0,0,0,0,0,0,0,0,0,0,0,0,0,0,0,0,0,0,0,0,0,0,0,0,0,0,0,0,0,0,0,0,0,0,0,0,0,0,0,0,0,0,0,0,0,0,0,0,0,0,2.2156,2.2157,0,2.2213,2.2213,2.2214,2.219,2.2188,2.2187,2.2186,2.2242,2.2245,2.2247,0,0,0,0,0,0,0,0,0,0,0,0,0,2.2025,2.2028,2.2156,2.2157,2.2158,2.2212,2.2213,2.2214,2.219,2.2188,2.2187,2.2185,2.2241,2.2244,2.2248,0,0,0,0,0,0,0,0,0,0,0,0,0,2.2082,2.2029,2.2156,2.2152,2.2153,2.2212,2.2213,2.2214,2.219,2.2188,2.2186,2.2184,2.224,2.2244,2.2248,2.2315,0,0,2.2261,2.2263,0,0,0,0,0,0,0,0,2.2079,2.2087,2.2152,2.2153,2.2153,2.2192,2.2188,2.2248,2.2191,2.2176,2.2186,2.2183,2.2227,2.2232,2.2247,2.2317,2.232,2.2261,2.2264,2.2266,2.2267,0,0,0,0,0,0,0,2.2075,2.2084,2.2179,2.2153,2.2154,2.2147,2.2153,2.2199,2.2212,2.2177,2.2175,2.2183,2.2227,2.2243,2.2248,2.232,2.2261,2.2265,2.2267,2.2269,2.2446,2.2448,0,0,0,0,0,0,2.2071,2.2081,2.2177,2.218,2.211,2.2151,2.2157,2.2182,2.2212,2.2214,2.2184,2.2181,2.2237,2.2243,2.225,2.2329,2.2266,2.2269,2.2272,2.2443,2.2446,2.2448,0,0,0,0,0,0,2.2068,2.208,2.2174,2.213,2.2142,2.2155,2.2183,2.2184,2.22,2.2217,2.2219,2.2199,2.2236,2.2244,2.2298,2.233,2.2271,2.2275,2.2441,2.2444,2.2447,2.2487,0,0,0,0,0,0,2.2065,2.2079,2.2105,2.2131,2.2144,2.2223,2.2185,2.2186,2.2207,2.2204,2.2231,2.2234,2.2235,2.2292,2.2302,2.2335,2.2278,2.2438,2.2442,2.2446,2.2483,2.2491,2.2498,0,0,0,0,0,2.206,2.2114,2.2107,2.2119,2.2177,2.2225,2.2232,2.2233,2.221,2.2236,2.2246,2.2233,2.2325,2.2298,2.2309,2.2343,2.2436,2.2441,2.2446,2.2479,2.2489,2.2498,0,0,0,0,0,0,2.2092,2.2118,2.211,2.2174,2.2197,2.2221,2.2253,2.2244,2.2274,2.2269,2.2268,2.2275,2.233,2.2342,2.2312,2.2408,2.2377,2.2384,2.2398,2.2408,2.2416,2.2412,2.2282,0,0,0,0,0,2.2107,2.2144,2.2164,2.2219,2.2231,2.224,2.2261,2.2259,2.2283,2.2293,2.2307,2.233,2.2364,2.2387,2.2419,2.2484,2.2489,2.2513,2.2521,2.2527,2.2533,2.2567,2.2577,2.2465,2.2465,2.2465,0,0,2.2137,2.2156,2.2179,2.2225,2.2243,2.2281,2.2249,2.229,2.2317,2.2299,2.2351,2.2362,2.2388,2.2447,2.2474,2.2459,2.2565,2.2533,2.2538,2.2541,2.2573,2.2583,2.2593,2.2468,2.2467,2.2467,0,0,2.2212,2.223,2.2277,2.2295,2.2322,2.2328,2.2339,2.2364,2.237,2.2422,2.2409,2.2441,2.25,2.2518,2.2535,2.2614,2.2602,2.2625,2.2665,2.2698,2.2707,2.2714,2.2742,2.2751,2.2631,2.2631,2.2631,0,2.2246,2.2302,2.2302,2.2344,2.2364,2.2349,2.2395,2.2413,2.2449,2.2463,2.2445,2.2518,2.2534,2.2597,2.2616,2.2631,2.2642,2.2622,2.2706,2.2713,2.2721,2.2746,2.2757,2.2634,2.2633,2.2633,2.2633,0,2.2342,2.2382,2.2416,2.2451,2.2475,2.2519,2.2524,2.2548,2.2544,2.2551,2.2603,2.2622,2.2657,2.2671,2.2668,2.2733,2.2722,2.2705,2.2674,2.2734,2.2758,2.2768,2.2637,2.2636,2.2636,2.2635,0,0,2.244,2.2473,2.2486,2.2501,2.2529,2.2559,2.2601,2.2636,2.2656,2.2681,2.2715,2.2765,2.2749,2.2768,2.2766,2.2795,2.2854,2.2774,2.2774,2.2787,2.2925,2.2938,2.2949,2.2846,2.2848,2.285,2.2923,0,2.2516,2.2591,2.2591,2.266,2.2695,2.268,2.2717,2.2737,2.2744,2.2774,2.2782,2.2817,2.2793,2.2805,2.2832,2.2841,2.2882,2.2836,2.2878,2.2879,2.2871,2.2962,2.2976,2.3044,2.2932,2.2934,2.2935,0,2.2615,2.2643,2.2715,2.2736,2.2751,2.2785,2.2815,2.2844,2.2867,2.2869,2.289,2.2883,2.2925,2.2892,2.2949,2.2918,2.2934,2.2941,2.2944,2.2947,2.2911,2.2968,2.3066,2.3076,2.295,2.2949,2.2948,0,2.2677,2.2733,2.2783,2.2796,2.2823,2.2846,2.2858,2.2879,2.2899,2.2925,2.2938,2.2968,2.2985,2.3009,2.3009,2.2986,2.3066,2.3034,2.3069,2.3069,2.3087,2.3085,2.3189,2.3098,2.3098,2.3098,2.3098,0,2.2761,2.2806,2.2811,2.2842,2.2891,2.289,2.2938,2.2947,2.2965,2.2997,2.2986,2.3015,2.3015,2.3045,2.3045,2.3091,2.3099,2.3102,2.3102,2.3103,2.3102,2.3114,2.3109,2.3101,2.31,2.31,2.3099,0,2.284,2.2845,2.2898,2.2919,2.2925,2.296,2.2977,2.3005,2.3011,2.3051,2.306,2.3068,2.3102,2.3106,2.3145,2.3146,2.3201,2.3196,2.3194,2.3193,2.3227,2.3224,2.3341,2.3356,2.3256,2.3257,2.3258,0,2.2893,2.2927,2.2951,2.2971,2.2984,2.3017,2.3038,2.3037,2.3058,2.3085,2.311,2.3143,2.317,2.3225,2.3234,2.3263,2.3258,2.3297,2.3263,2.3262,2.3258,2.3256,2.3258,2.3304,2.3305,2.3306,2.3307,0,2.2987,2.2987,2.3017,2.3048,2.3072,2.3096,2.3118,2.3135,2.3137,2.3161,2.3196,2.3216,2.3256,2.3289,2.3318,2.3329,2.3318,2.3317,2.3327,2.3328,2.3325,2.3326,2.3211,2.3315,2.3314,2.3313,2.3313,2.3313,2.3054,2.3083,2.3103,2.3136,2.3153,2.3174,2.3201,2.321,2.3239,2.3272,2.3269,2.3307,2.3326,2.3364,2.3377,2.3406,2.3393,2.3407,2.3411,2.3414,2.3417,2.3321,2.3412,2.3411,2.3411,2.3411,2.3411,0,2.3146,2.3158,2.3189,2.322,2.3246,2.3233,2.3257,2.3278,2.3312,2.3332,2.3358,2.3397,2.3427,2.3438,2.3468,2.3489,2.3485,2.3497,2.3495,2.3498,2.3428,2.3416,2.35,2.35,2.35,2.35,2.35,2.35,2.3197,2.3245,2.3248,2.3303,2.3314,2.3352,2.3366,2.3384,2.34,2.3444,2.3469,2.3476,2.3492,2.3522,2.355,2.3552,2.3563,2.3577,2.3577,2.3512,2.3503,2.3494,2.3483,2.358,2.358,2.3645,2.3645,2.3646]}]]